Location: Haliburton Scout Reserve
(45.0900°N, 78.3200°W)
Time: 20:01:41
(UTC-05:00)

Courier 1B - Pass Details

Date: 02 December 2023
Orbit: 962 x 1209 km, 28.3° (Epoch: 23 February)

Event Time Altitude Azimuth Distance (km) Brightness Sun altitude
Rises 12:08:44 0° 236° (SW) 3,656 11.0 22.9°
Reaches altitude 10° 12:12:20 10° 217° (SW) 2,691 10.9 22.9°
Maximum altitude 12:16:21 17° 178° (S) 2,200 12.1 22.8°
Drops below altitude 10° 12:20:23 10° 139° (SE) 2,690 10.6 22.8°
Sets 12:23:59 0° 121° (ESE) 3,654 10.8 22.7°
